Location: San Vito
(41.8833°N, 12.9833°E)
Time: 00:40:43
(UTC+00:00)

STARLINK-58 - Pass Details

Date: 17 November 2019
Orbit: 529 x 531 km, 53.0° (Epoch: 15 December)

Event Time Altitude Azimuth Distance (km) Brightness Sun altitude
Exits shadow 04:51:33 13° 245° (WSW) 1,603 5.5 -12.7°
Maximum altitude 04:55:06 64° 326° (NW) 604 3.6 -12.1°
Drops below altitude 10° 04:59:14 10° 48° (NE) 1,837 6.8 -11.4°
Sets 05:01:32 0° 52° (NE) 2,754 7.7 -10.9°
